Location: Ceska republika
(50.0000°N, 15.0000°E)
Time: 17:39:45
(UTC+02:00)

ISS - Pass Details

Date: 07 October 2017
Orbit: 401 x 408 km, 51.6° (Epoch: 23 October)

Event Time Altitude Azimuth Distance (km) Brightness Sun altitude
Rises 18:53:00 0° 273° (W) 2,324 2.7 -5.3°
Reaches altitude 10° 18:55:06 10° 277° (W) 1,465 0.8 -5.6°
Maximum altitude 18:58:22 63° 359° (N) 460 -3.6 -6.1°
Drops below altitude 10° 19:01:38 10° 81° (E) 1,470 -1.7 -6.6°
Enters shadow 19:01:52 - 82° (E) 1,566 -1.5 -6.7°
